DW5222 Weather Reports


Display with metric or nautical units.
time (UTC)temp
F
wind
direction
speed
MPH
gust
MPH
rain 1hr
in
rain 24hr
in
rain mn
in
humidity
%
barometer
mb
20211207213205 30 125 0.0 0.0 0.00 0.00 0.00 88 1004.8
20211207212705 30 92 0.0 0.0 0.00 0.00 0.00 88 1004.8
20211207212205 30 109 0.0 0.0 0.00 0.00 0.00 88 1004.9
20211207211704 30 96 0.0 0.0 0.00 0.00 0.00 88 1005.0
20211207211205 30 110 0.0 1.0 0.00 0.00 0.00 89 1005.2
20211207210704 30 111 0.0 1.0 0.00 0.00 0.00 89 1005.4
20211207210204 30 102 0.0 1.0 0.00 0.00 0.00 89 1005.4
20211207205705 30 127 0.0 0.0 0.00 0.00 0.00 89 1005.7
20211207205204 30 152 0.0 0.0 0.00 0.00 0.00 89 1005.9
20211207204706 30 103 0.0 0.0 0.00 0.00 0.00 89 1006.0
20211207204205 30 103 0.0 0.0 0.00 0.00 0.00 89 1006.1
20211207203704 30 103 0.0 0.0 0.00 0.00 0.00 89 1006.2
20211207203205 30 103 0.0 0.0 0.00 0.00 0.00 89 1006.3
20211207202704 30 103 0.0 0.0 0.00 0.00 0.00 89 1006.4
20211207202205 31 103 0.0 0.0 0.00 0.00 0.00 90 1006.4
20211207201705 31 103 0.0 0.0 0.00 0.00 0.00 89 1006.5
20211207201205 31 103 0.0 0.0 0.00 0.00 0.00 89 1006.7
20211207200705 31 103 0.0 0.0 0.00 0.00 0.00 90 1006.7
20211207200204 31 103 0.0 0.0 0.00 0.00 0.00 91 1006.9
20211207195714 31 103 0.0 0.0 0.00 0.00 0.00 90 1006.9
20211207195207 31 103 0.0 0.0 0.00 0.00 0.00 90 1007.0
20211207194705 31 103 0.0 0.0 0.00 0.00 0.00 90 1007.0
20211207194206 31 140 0.0 0.0 0.00 0.00 0.00 90 1007.2
20211207193704 31 140 0.0 0.0 0.00 0.00 0.00 90 1007.2
20211207193204 31 140 0.0 0.0 0.00 0.00 0.00 90 1007.4
20211207192705 31 140 0.0 0.0 0.00 0.00 0.00 91 1007.5
20211207192205 31 140 0.0 0.0 0.00 0.00 0.00 92 1007.5
20211207191704 31 140 0.0 0.0 0.00 0.00 0.00 91 1007.6
20211207191205 31 140 0.0 0.0 0.00 0.00 0.00 90 1007.8
20211207190704 31 140 0.0 0.0 0.00 0.00 0.00 90 1007.9
20211207190205 31 148 0.0 0.0 0.00 0.00 0.00 90 1008.0
20211207185704 31 148 0.0 0.0 0.00 0.00 0.00 89 1008.1
20211207185204 31 148 0.0 0.0 0.00 0.00 0.00 89 1008.1
20211207184705 31 148 0.0 0.0 0.00 0.00 0.00 89 1008.1
20211207184205 31 148 0.0 0.0 0.00 0.00 0.00 90 1008.1
20211207183705 32 148 0.0 0.0 0.00 0.00 0.00 90 1008.1
20211207183205 32 148 0.0 0.0 0.00 0.00 0.00 90 1008.2
20211207182708 32 148 0.0 0.0 0.00 0.00 0.00 90 1008.4
20211207182208 32 148 0.0 0.0 0.00 0.00 0.00 89 1008.5
20211207181705 32 148 0.0 0.0 0.00 0.00 0.00 90 1008.4
20211207181205 32 148 0.0 0.0 0.00 0.00 0.00 90 1008.4
20211207180704 32 148 0.0 0.0 0.00 0.00 0.00 92 1008.7
20211207180205 32 148 0.0 0.0 0.00 0.00 0.00 91 1008.8
20211207175704 31 244 0.0 0.0 0.00 0.00 0.00 90 1008.9
20211207175205 31 244 0.0 0.0 0.00 0.00 0.00 90 1009.0
20211207174705 31 244 0.0 0.0 0.00 0.00 0.00 90 1009.0
20211207174205 32 244 0.0 0.0 0.00 0.00 0.00 90 1009.0
20211207173704 32 244 0.0 0.0 0.00 0.00 0.00 90 1009.1
20211207173205 32 244 0.0 0.0 0.00 0.00 0.00 90 1009.2
20211207172707 32 244 0.0 0.0 0.00 0.00 0.00 90 1009.3
20211207172205 32 248 0.0 0.0 0.00 0.00 0.00 90 1009.3
20211207171704 32 248 0.0 0.0 0.00 0.00 0.00 90 1009.5
20211207171205 32 248 0.0 0.0 0.00 0.00 0.00 90 1009.5
20211207170705 32 248 0.0 0.0 0.00 0.00 0.00 90 1009.6
20211207170205 32 248 0.0 0.0 0.00 0.00 0.00 89 1009.8
20211207165704 32 248 0.0 0.0 0.00 0.00 0.00 88 1009.8
20211207165204 32 248 0.0 0.0 0.00 0.00 0.00 88 1009.9
20211207164705 32 248 0.0 0.0 0.00 0.00 0.00 87 1010.0
20211207164205 33 248 0.0 0.0 0.00 0.00 0.00 87 1010.1
20211207163705 33 248 0.0 0.0 0.00 0.00 0.00 86 1010.2
20211207163205 33 248 0.0 0.0 0.00 0.00 0.00 86 1010.3
20211207162708 34 248 0.0 0.0 0.00 0.00 0.00 86 1010.3
20211207162205 34 248 0.0 0.0 0.00 0.00 0.00 85 1010.3
20211207161705 34 248 0.0 0.0 0.00 0.00 0.00 85 1010.4
20211207161205 35 248 0.0 0.0 0.00 0.00 0.00 83 1010.5
20211207160705 35 248 0.0 0.0 0.00 0.00 0.00 83 1010.5
20211207160204 36 248 0.0 0.0 0.00 0.00 0.00 85 1010.7
20211207155705 35 248 0.0 0.0 0.00 0.00 0.00 83 1010.6
20211207155205 35 248 0.0 0.0 0.00 0.00 0.00 82 1010.8
20211207154705 35 248 0.0 0.0 0.00 0.00 0.00 81 1010.9
20211207154205 36 248 0.0 0.0 0.00 0.00 0.00 81 1011.0
20211207153704 36 248 0.0 0.0 0.00 0.00 0.00 80 1011.1
20211207153204 36 248 0.0 0.0 0.00 0.00 0.00 80 1011.2
20211207152705 37 248 0.0 0.0 0.00 0.00 0.00 79 1011.1
20211207152206 37 248 0.0 0.0 0.00 0.00 0.00 78 1011.2
20211207151705 37 248 0.0 0.0 0.00 0.00 0.00 78 1011.2
20211207151207 37 248 0.0 0.0 0.00 0.00 0.00 78 1011.1
20211207150705 37 248 0.0 0.0 0.00 0.00 0.00 78 1011.2
20211207150205 37 248 0.0 0.0 0.00 0.00 0.00 78 1011.3
20211207145707 37 248 0.0 0.0 0.00 0.00 0.00 78 1011.3
20211207145208 37 248 0.0 0.0 0.00 0.00 0.00 77 1011.4
20211207144705 38 273 0.0 0.0 0.00 0.00 0.00 77 1011.3
20211207144205 38 218 0.0 0.0 0.00 0.00 0.00 77 1011.3
20211207143705 38 238 0.0 0.0 0.00 0.00 0.00 76 1011.3
20211207143204 38 225 0.0 1.0 0.00 0.00 0.00 76 1011.4
20211207142705 38 213 0.0 1.0 0.00 0.00 0.00 77 1011.3
20211207142204 38 234 0.0 0.0 0.00 0.00 0.00 77 1011.3
20211207141705 38 239 0.0 0.0 0.00 0.00 0.00 77 1011.3
20211207141205 38 246 0.0 1.0 0.00 0.00 0.00 77 1011.4
20211207140705 38 247 0.0 1.0 0.00 0.00 0.00 78 1011.5
20211207140205 38 263 0.0 1.0 0.00 0.00 0.00 78 1011.7
20211207135707 38 253 0.0 0.0 0.00 0.00 0.00 78 1011.7
20211207135205 38 247 0.0 0.0 0.00 0.00 0.00 78 1011.7
20211207134705 38 186 0.0 0.0 0.00 0.00 0.00 79 1011.7
20211207134205 38 203 0.0 4.0 0.00 0.00 0.00 79 1011.7
20211207133705 38 240 0.0 4.0 0.00 0.00 0.00 79 1011.7
20211207133205 38 248 0.0 1.0 0.00 0.00 0.00 79 1011.8
20211207132705 38 238 0.0 2.0 0.00 0.00 0.00 78 1011.4
20211207132204 38 268 0.0 2.0 0.00 0.00 0.00 78 1011.9
20211207131705 39 240 0.0 2.0 0.00 0.00 0.00 77 1011.8
20211207131205 39 259 0.0 1.0 0.00 0.00 0.00 77 1011.7
20211207130708 39 260 0.0 1.0 0.00 0.00 0.00 78 1011.8
20211207130205 39 225 0.0 1.0 0.00 0.00 0.00 78 1011.8
20211207125705 39 269 0.0 1.0 0.00 0.00 0.00 79 1011.8
20211207125208 39 267 0.0 1.0 0.00 0.00 0.00 79 1011.8
20211207124705 39 250 0.0 2.0 0.00 0.00 0.00 80 1011.9
20211207124206 38 268 0.0 2.0 0.00 0.00 0.00 80 1012.0
20211207123705 38 234 0.0 2.0 0.00 0.00 0.00 80 1012.0
20211207123205 38 241 0.0 7.0 0.00 0.00 0.00 80 1011.9
20211207122704 38 229 0.0 7.0 0.00 0.00 0.00 80 1012.2
20211207122205 38 261 0.0 7.0 0.00 0.00 0.00 80 1012.1
20211207121704 38 244 0.0 5.0 0.00 0.00 0.00 80 1012.1
20211207121205 38 217 0.0 5.0 0.00 0.00 0.00 81 1012.3
20211207120704 38 263 0.0 5.0 0.00 0.00 0.00 81 1012.2
20211207120205 38 242 0.0 0.0 0.00 0.00 0.00 81 1012.2
20211207115705 38 236 0.0 10.0 0.00 0.00 0.00 81 1012.3
20211207115205 38 244 0.0 10.0 0.00 0.00 0.00 81 1012.3
20211207114705 38 246 0.0 10.0 0.00 0.00 0.00 81 1012.3
20211207114205 38 321 0.0 1.0 0.00 0.00 0.00 81 1012.4
20211207113704 38 257 0.0 1.0 0.00 0.00 0.00 81 1012.4
20211207113205 38 222 0.0 0.0 0.00 0.00 0.00 81 1012.5
20211207112704 38 242 0.0 1.0 0.00 0.00 0.00 81 1012.3
20211207112208 38 248 0.0 1.0 0.00 0.00 0.00 81 1012.4
20211207111705 38 283 0.0 1.0 0.00 0.00 0.00 82 1012.5
20211207111204 38 226 0.0 1.0 0.00 0.00 0.00 82 1012.6
20211207110714 38 232 0.0 1.0 0.00 0.00 0.00 82 1012.5
20211207110208 38 235 0.0 1.0 0.00 0.00 0.00 82 1012.5
20211207105704 38 279 0.0 1.0 0.00 0.00 0.00 82 1012.5
20211207105204 38 266 0.0 1.0 0.00 0.00 0.00 83 1012.4
20211207104705 38 309 0.0 1.0 0.00 0.00 0.00 82 1012.3
20211207104205 38 251 0.0 1.0 0.00 0.00 0.00 83 1012.2
20211207103705 38 275 0.0 1.0 0.00 0.00 0.00 84 1012.2
20211207103205 37 214 0.0 0.0 0.00 0.00 0.00 84 1012.2
20211207102704 37 240 0.0 0.0 0.00 0.00 0.00 85 1012.2
20211207102205 37 227 0.0 5.0 0.00 0.00 0.00 85 1012.3
20211207101705 37 248 0.0 5.0 0.00 0.00 0.00 86 1012.4
20211207101205 37 225 0.0 0.0 0.00 0.00 0.00 87 1012.3
20211207100705 37 240 0.0 11.0 0.00 0.00 0.00 86 1012.3
20211207100205 37 213 0.0 11.0 0.00 0.00 0.00 87 1012.4
20211207095704 37 200 0.0 11.0 0.00 0.00 0.00 87 1012.4
20211207095205 36 261 0.0 1.0 0.00 0.00 0.00 87 1012.5
20211207094705 36 250 0.0 1.0 0.00 0.00 0.00 88 1012.5
20211207094204 36 218 0.0 1.0 0.00 0.00 0.00 88 1012.5
20211207093705 36 224 0.0 0.0 0.00 0.00 0.00 88 1012.6
20211207093205 36 229 0.0 1.0 0.00 0.00 0.00 89 1012.6
20211207092705 35 237 0.0 1.0 0.00 0.00 0.00 89 1012.5
20211207092205 35 228 0.0 1.0 0.00 0.00 0.00 89 1012.5
20211207091704 35 253 0.0 0.0 0.00 0.00 0.00 88 1012.4
20211207091205 35 235 0.0 0.0 0.00 0.00 0.00 88 1012.4
20211207090705 35 240 0.0 0.0 0.00 0.00 0.00 87 1012.2
20211207090205 36 235 0.0 0.0 0.00 0.00 0.00 88 1012.1
20211207085704 36 252 0.0 0.0 0.00 0.00 0.00 88 1012.1
20211207085205 35 242 0.0 0.0 0.00 0.01 0.00 88 1012.1
20211207084705 35 269 0.0 0.0 0.00 0.01 0.00 88 1012.0
20211207084204 35 272 0.0 0.0 0.00 0.01 0.00 89 1012.0
20211207083704 35 242 0.0 0.0 0.00 0.01 0.00 89 1011.9
20211207083205 35 0.0 0.0 0.00 0.01 0.00 89 1011.9
20211207082707 35 0.0 0.0 0.00 0.01 0.00 89 1011.9
20211207042205 31 0.0 0.0 0.00 0.01 0.00 94 1009.4
20211207041705 31 216 0.0 0.0 0.00 0.01 0.00 94 1009.4
20211207041205 31 216 0.0 0.0 0.00 0.01 0.00 94 1009.4
20211207040708 31 232 0.0 0.0 0.00 0.01 0.00 94 1009.4
20211207040205 31 219 0.0 0.0 0.00 0.01 0.00 94 1009.4
20211207035705 31 196 0.0 0.0 0.00 0.01 0.00 94 1009.4
20211207035205 31 245 0.0 1.0 0.00 0.01 0.00 93 1009.4
20211207034705 31 214 0.0 1.0 0.00 0.01 0.00 93 1009.4
20211207034205 31 223 0.0 4.0 0.00 0.01 0.00 93 1009.4
20211207033705 32 223 0.0 4.0 0.00 0.01 0.00 92 1009.4
20211207033205 32 236 0.0 4.0 0.00 0.01 0.00 92 1009.5
20211207032704 32 240 0.0 0.0 0.00 0.01 0.00 91 1009.5
20211207032205 32 225 0.0 0.0 0.00 0.01 0.00 90 1009.4
20211207031704 32 241 0.0 0.0 0.00 0.01 0.00 89 1009.4
20211207031204 32 213 0.0 0.0 0.00 0.01 0.00 90 1009.3
20211207030705 32 227 0.0 0.0 0.00 0.01 0.00 91 1009.3
20211207030205 32 224 0.0 0.0 0.00 0.01 0.00 91 1009.2
20211207025705 31 227 0.0 0.0 0.00 0.01 0.00 92 1009.2
20211207025204 31 209 0.0 0.0 0.00 0.01 0.00 93 1009.1
20211207024705 31 165 0.0 0.0 0.00 0.01 0.00 93 1009.0
20211207024205 31 160 0.0 0.0 0.00 0.01 0.00 93 1009.0
20211207023707 31 248 0.0 0.0 0.00 0.01 0.00 94 1008.9
20211207023204 31 179 0.0 0.0 0.00 0.01 0.00 94 1008.9
20211207022705 31 146 0.0 0.0 0.00 0.01 0.00 94 1009.0
20211207022204 31 167 0.0 0.0 0.00 0.01 0.00 94 1009.1
20211207021705 31 211 0.0 0.0 0.00 0.01 0.00 94 1009.2
20211207021205 31 158 0.0 0.0 0.00 0.01 0.00 94 1009.2
20211207020705 31 180 0.0 0.0 0.00 0.01 0.00 94 1009.3
20211207020205 31 177 0.0 0.0 0.00 0.01 0.00 94 1009.3
20211207015704 31 177 0.0 0.0 0.00 0.01 0.00 94 1009.4
20211207015205 31 164 0.0 0.0 0.00 0.01 0.00 94 1009.4
20211207014705 31 219 0.0 0.0 0.00 0.01 0.00 94 1009.5
20211207014214 31 214 0.0 0.0 0.00 0.01 0.00 94 1009.6
20211207013705 31 214 0.0 0.0 0.00 0.01 0.00 94 1009.5
20211207013205 31 174 0.0 0.0 0.00 0.01 0.00 94 1009.6
20211207012705 31 173 0.0 0.0 0.00 0.01 0.00 94 1009.6
20211207012206 30 178 0.0 0.0 0.00 0.01 0.00 94 1009.6
20211207011705 30 175 0.0 0.0 0.00 0.01 0.00 94 1009.6
20211207011207 30 252 0.0 0.0 0.00 0.01 0.00 94 1009.8
20211207010708 30 254 0.0 0.0 0.00 0.01 0.00 94 1009.6
20211207010205 30 240 0.0 0.0 0.00 0.01 0.00 94 1009.6
20211207005704 30 171 0.0 0.0 0.00 0.01 0.00 94 1009.6
20211207005205 30 170 0.0 0.0 0.00 0.01 0.00 94 1009.8
20211207004705 30 229 0.0 0.0 0.00 0.01 0.00 94 1009.9
20211207004205 30 229 0.0 0.0 0.00 0.01 0.00 94 1010.0
20211207003708 30 195 0.0 0.0 0.00 0.01 0.00 94 1010.0
20211207003205 30 200 0.0 0.0 0.00 0.01 0.00 94 1010.1
20211207002708 30 213 0.0 0.0 0.00 0.01 0.00 94 1010.2
20211207002214 30 213 0.0 0.0 0.00 0.01 0.00 94 1010.2
20211207001705 30 213 0.0 0.0 0.00 0.01 0.00 94 1010.2
20211207001204 30 220 0.0 0.0 0.00 0.01 0.00 94 1010.2
20211207000705 30 240 0.0 0.0 0.00 0.01 0.00 94 1010.3
20211207000205 30 163 0.0 0.0 0.00 0.01 0.00 94 1010.2
20211206235704 30 176 0.0 0.0 0.00 0.01 0.00 94 1010.2
20211206235205 30 157 0.0 0.0 0.00 0.01 0.00 95 1010.2
20211206234705 30 157 0.0 0.0 0.00 0.01 0.00 95 1010.3
20211206234205 29 169 0.0 0.0 0.00 0.01 0.00 94 1010.4
20211206233704 29 169 0.0 0.0 0.00 0.01 0.00 94 1010.4
20211206233205 30 169 0.0 0.0 0.00 0.01 0.00 94 1010.4
20211206232705 30 169 0.0 0.0 0.00 0.01 0.00 95 1010.3
20211206232208 30 169 0.0 0.0 0.00 0.01 0.00 94 1010.3
20211206231707 30 169 0.0 0.0 0.00 0.01 0.00 94 1010.4
20211206231205 30 169 0.0 0.0 0.00 0.01 0.00 94 1010.3
20211206230705 30 169 0.0 0.0 0.00 0.01 0.00 95 1010.4
20211206230208 30 169 0.0 0.0 0.00 0.01 0.01 94 1010.6
20211206225704 30 169 0.0 0.0 0.00 0.01 0.01 94 1010.7
20211206225204 30 169 0.0 0.0 0.00 0.01 0.01 94 1010.7
20211206224705 30 169 0.0 0.0 0.00 0.01 0.01 94 1011.0
20211206224205 30 169 0.0 0.0 0.00 0.01 0.01 94 1011.1
20211206223705 30 169 0.0 0.0 0.00 0.01 0.01 94 1011.2
20211206223204 30 169 0.0 0.0 0.00 0.01 0.01 94 1011.3
20211206222706 30 169 0.0 0.0 0.00 0.01 0.01 94 1011.3
20211206222205 30 169 0.0 0.0 0.00 0.01 0.01 94 1011.3
20211206221704 30 169 0.0 0.0 0.00 0.01 0.01 94 1011.3
20211206221208 30 169 0.0 0.0 0.00 0.01 0.01 94 1011.4
20211206220705 30 169 0.0 0.0 0.00 0.01 0.01 94 1011.4
20211206220205 30 169 0.0 0.0 0.00 0.01 0.01 94 1011.4
20211206215704 30 169 0.0 0.0 0.00 0.01 0.01 94 1011.4
20211206215205 31 169 0.0 0.0 0.00 0.01 0.01 94 1011.5
20211206214705 31 169 0.0 0.0 0.00 0.01 0.01 94 1011.5
20211206214205 31 169 0.0 0.0 0.00 0.01 0.01 94 1011.5
20211206213704 31 169 0.0 0.0 0.00 0.01 0.01 94 1011.5